New Bern, NC

4:49 PM EST on February 19, 2017 (GMT -0500)
Craven County Regional

Weather History for KEWN - July, 2013

Change the Weather History Date:

Monday, July 29, 2013

  Actual Average Record
Temperature  
Mean Temperature 81 °F 80 °F  
Max Temperature 88 °F 89 °F 102 °F (2011)
Min Temperature 73 °F 72 °F 64 °F (1954)
Degree Days  
Heating Degree Days 0 0  
Month to date heating degree days 0 0  
Since 1 June heating degree days 0 1  
Since 1 July heating degree days 0 0  
Cooling Degree Days 16 15  
Month to date cooling degree days 490 456  
Year to date cooling degree days 1155 1064  
Since 1 June cooling degree days 899 821  
Growing Degree Days 30 (Base 50)    
Moisture  
Dew Point 73 °F    
Average Humidity 81    
Maximum Humidity 94    
Minimum Humidity 68    
Precipitation  
Precipitation 0.55 in 0.22 in 3.49 in (1981)
Month to date precipitation 3.71 5.73  
Year to date precipitation 23.27 29.71  
Snow  
Snow 0.00 in - - ()
Month to date snowfall 0.0  
Since 1 July snowfall 0.0  
Snow Depth 0.00 in    
Sea Level Pressure  
Sea Level Pressure 30.09 in    
Wind  
Wind Speed 3 mph (SSW)    
Max Wind Speed 21 mph    
Max Gust Speed 29 mph    
Visibility 8 miles    
Events Rain , Thunderstorm    
T = Trace of Precipitation, MM = Missing Value Source: NWS Daily Summary

Daily Weather History Graph

Daily Weather History Graph

Search for Another Location

Airport or City:

Trip Planner

Search our weather history database for the weather conditions in past years. The results will help you decide how hot, cold, wet, or windy it might be!

Date:

Astronomy

Jul. 29, 2013 Rise Set
Actual Time 6:15 AM EDT 8:13 PM EDT
Civil Twilight 5:47 AM EDT 8:41 PM EDT
Nautical Twilight 5:13 AM EDT 9:15 PM EDT
Astronomical Twilight 4:36 AM EDT 9:51 PM EDT
Moon No Moon Rise 1:35 PM EDT (7/29)
Length of Visible Light 14h 54m
Length of Day
13h 58m
Waning Gibbous, 51% of the Moon is Illuminated
Jul 29
Waning Gibbous
Jul 29
Last Quarter
Aug 6
New
Aug 14
First Quarter
Aug 20
Full

Hourly Weather History & Observations

Time (EDT) Temp. Heat Index Dew Point Humidity Pressure Visibility Wind Dir Wind Speed Gust Speed Precip Events Conditions
12:54 AM 79.0 °F - 75.0 °F 88% 30.05 in 10.0 mi South 5.8 mph - N/A   Clear
1:54 AM 78.1 °F - 75.0 °F 90% 30.04 in 10.0 mi SSW 3.5 mph - N/A   Clear
2:54 AM 77.0 °F - 73.9 °F 90% 30.03 in 8.0 mi SSW 3.5 mph - N/A   Clear
3:54 AM 77.0 °F - 73.9 °F 90% 30.03 in 7.0 mi Calm Calm - N/A   Clear
4:54 AM 75.9 °F - 73.9 °F 94% 30.04 in 7.0 mi SSW 3.5 mph - N/A   Clear
5:29 AM 75.2 °F - 73.4 °F 94% 30.04 in 6.0 mi SW 3.5 mph - N/A   Mostly Cloudy
5:54 AM 77.0 °F - 73.9 °F 90% 30.05 in 8.0 mi SW 3.5 mph - N/A   Overcast
6:30 AM 77.0 °F - 73.4 °F 89% 30.05 in 6.0 mi WSW 5.8 mph - N/A   Mostly Cloudy
6:54 AM 77.0 °F - 73.9 °F 90% 30.06 in 6.0 mi SW 4.6 mph - N/A   Mostly Cloudy
7:54 AM 78.1 °F - 75.0 °F 90% 30.07 in 5.0 mi SW 4.6 mph - N/A   Overcast
8:16 AM 78.8 °F - 75.2 °F 89% 30.08 in 6.0 mi Calm Calm - N/A   Overcast
8:27 AM 78.8 °F - 75.2 °F 89% 30.08 in 6.0 mi SW 3.5 mph - N/A   Overcast
8:39 AM 78.8 °F - 75.2 °F 89% 30.08 in 6.0 mi Variable 3.5 mph - N/A   Overcast
8:54 AM 81.0 °F 87.3 °F 75.9 °F 85% 30.09 in 6.0 mi Variable 3.5 mph - N/A   Haze
9:01 AM 80.6 °F 86.2 °F 75.2 °F 84% 30.08 in 6.0 mi SW 5.8 mph - N/A   Haze
9:13 AM 82.4 °F 89.5 °F 75.2 °F 79% 30.09 in 7.0 mi Variable 4.6 mph - N/A   Scattered Clouds
9:43 AM 82.4 °F 89.5 °F 75.2 °F 79% 30.09 in 8.0 mi Calm Calm - N/A   Mostly Cloudy
9:54 AM 82.0 °F 88.6 °F 75.0 °F 79% 30.09 in 8.0 mi Calm Calm - N/A   Overcast
10:46 AM 84.2 °F 92.3 °F 75.2 °F 74% 30.10 in 8.0 mi Variable 3.5 mph - N/A   Overcast
10:54 AM 84.9 °F 93.3 °F 75.0 °F 72% 30.10 in 9.0 mi South 3.5 mph - N/A   Overcast
11:28 AM 84.2 °F 92.3 °F 75.2 °F 74% 30.10 in 9.0 mi Calm Calm - N/A   Mostly Cloudy
11:54 AM 86.0 °F 95.1 °F 75.0 °F 70% 30.10 in 9.0 mi SSW 4.6 mph - N/A   Scattered Clouds
12:54 PM 88.0 °F 98.5 °F 75.9 °F 67% 30.09 in 9.0 mi SSE 3.5 mph - N/A   Clear
1:23 PM 82.4 °F 89.5 °F 75.2 °F 79% 30.08 in 2.5 mi SSW 5.8 mph - 0.04 in Rain , Thunderstorm Heavy Thunderstorms and Rain
1:29 PM 80.6 °F 87.1 °F 77.0 °F 89% 30.08 in 0.8 mi SSW 16.1 mph 21.9 mph 0.21 in Rain , Thunderstorm Heavy Thunderstorms and Rain
1:38 PM 77.0 °F - 71.6 °F 83% 30.08 in 0.5 mi South 8.1 mph - 0.49 in Rain , Thunderstorm Heavy Thunderstorms and Rain
1:42 PM 75.2 °F - 71.6 °F 89% 30.07 in 1.0 mi South 8.1 mph - 0.50 in Rain , Thunderstorm Heavy Thunderstorms and Rain
1:47 PM 77.0 °F - 69.8 °F 78% 30.07 in 3.0 mi SSE 8.1 mph - 0.50 in Rain , Thunderstorm Light Thunderstorms and Rain
1:54 PM 78.1 °F - 66.9 °F 68% 30.06 in 10.0 mi Variable 3.5 mph 16.1 mph 0.50 in Rain , Thunderstorm Light Thunderstorms and Rain
2:54 PM 75.9 °F - 70.0 °F 82% 30.07 in 10.0 mi Calm Calm - 0.01 in Thunderstorm Mostly Cloudy
3:14 PM 78.8 °F - 71.6 °F 78% 30.09 in 10.0 mi West 10.4 mph 17.3 mph N/A Thunderstorm Mostly Cloudy
3:41 PM 77.0 °F - 71.6 °F 83% 30.10 in 9.0 mi SW 4.6 mph - 0.00 in Rain , Thunderstorm Light Thunderstorms and Rain
3:54 PM 75.9 °F - 72.0 °F 87% 30.11 in 9.0 mi SSW 6.9 mph - 0.00 in Rain , Thunderstorm Light Thunderstorms and Rain
4:05 PM 75.2 °F - 71.6 °F 89% 30.10 in 7.0 mi Variable 4.6 mph - 0.02 in Rain , Thunderstorm Rain
4:15 PM 75.2 °F - 69.8 °F 83% 30.12 in 5.0 mi South 4.6 mph - 0.03 in Rain , Thunderstorm Rain
4:50 PM 73.4 °F - 69.8 °F 88% 30.10 in 8.0 mi South 4.6 mph - 0.04 in Rain Light Rain
4:54 PM 73.9 °F - 71.1 °F 91% 30.11 in 10.0 mi SSW 4.6 mph - 0.04 in Rain Light Rain
5:54 PM 75.9 °F - 72.0 °F 87% 30.12 in 10.0 mi South 3.5 mph - 0.00 in   Mostly Cloudy
6:12 PM 77.0 °F - 71.6 °F 83% 30.11 in 10.0 mi Calm Calm - N/A   Mostly Cloudy
6:24 PM 78.8 °F - 73.4 °F 83% 30.12 in 10.0 mi South 3.5 mph - N/A   Mostly Cloudy
6:54 PM 78.1 °F - 73.0 °F 84% 30.13 in 10.0 mi SSE 5.8 mph - N/A   Mostly Cloudy
7:54 PM 77.0 °F - 73.0 °F 88% 30.13 in 10.0 mi South 4.6 mph - N/A   Clear
8:54 PM 75.9 °F - 73.0 °F 91% 30.14 in 9.0 mi SSW 4.6 mph - N/A   Clear
9:54 PM 75.0 °F - 72.0 °F 90% 30.16 in 10.0 mi Calm Calm - N/A   Clear
10:54 PM 75.0 °F - 72.0 °F 90% 30.16 in 10.0 mi Calm Calm - N/A   Clear
11:54 PM 73.9 °F - 71.1 °F 91% 30.16 in 8.0 mi Calm Calm - N/A   Clear